STARLINK-30264 (57534 NORAD) Tracking and Keplerian Element Data

This shows tracking and keplerian element data for the satellite.

Feedback or suggestion? Click here.




ElementValue
Catalog57534
NameSTARLINK-30264
Epoch Orbit2536
Epoch Day13.20026882
Epoch Year2024
RAAN305.7791
Inclination42.9996
Eccentricity0.0001374
Argument of Perigee286.4544
Mean Anonmoly73.6148
Mean Motion15.04510609
Decay Rate0.00038095
L11 57534U 23115P 24013.20026882 .00038095 00000+0 26755-2 0 9995
L22 57534 42.9996 305.7791 0001374 286.4544 73.6148 15.04510609 25361



Live tracking and technical data element details for STARLINK-30264 (NORAD 57534). STARLINK-30264 can be tracked NOW for your location showing map with azimuth and elevation plus other details from your city location.







IsCatalogInMostPopularTable: catalog: 57534, numindb: 25
Update: records affected: 1



GetName: 57534 STARLINK-30264

Hit Count: updated at: Thu, 22 Feb 2024 00:51:24 GMT